User: anonymous   Login
Location: Unspecified
(0.0000°N, 0.0000°E)
Time: 06:55:47
(UTC+00:00)
Language:

Cosmos 1803 - Orbit

View from above orbital plane
View from above orbital plane
View from above satellite
View from above satellite

Ground track
Ground track

The orbit data is extracted from the following two-line orbital elements,

1 17177U 86094A   18202.45779575 -.00000007 +00000-0 -12599-3 0  9990
2 17177 082.6075 336.7565 0002754 253.3249 165.7474 12.41551956433603
Epoch (UTC): 21 July 2018 10:59:13
Eccentricity: 0.0002754
inclination: 82.6075°
perigee height: 1498 km
apogee height: 1502 km
right ascension of ascending node: 336.7565°
argument of perigee: 253.3249°
revolutions per day: 12.41551956
mean anomaly at epoch: 165.7474°
orbit number at epoch: 43360

The dashed part of the orbit path shows where the satellite is in the earth's shadow,  

DLR